,

(GMT )
Rae Point

Weather History for CZRP - November, 2013

Change the Weather History Date:

Tuesday, November 12, 2013

  Actual Average Record
Temperature  
Mean Temperature 5 °F -  
Max Temperature 11 °F - - ()
Min Temperature -1 °F - - ()
Degree Days  
Heating Degree Days 60    
Moisture  
Dew Point 3 °F    
Average Humidity 86    
Maximum Humidity 91    
Minimum Humidity 73    
Precipitation  
Precipitation 0.00 in - - ()
Sea Level Pressure  
Sea Level Pressure 29.43 in    
Wind  
Wind Speed 7 mph ()    
Max Wind Speed 20 mph    
Max Gust Speed -    
T = Trace of Precipitation, MM = Missing Value Source: Averaged Metar Reports

Daily Weather History Graph

Daily Weather History Graph

Search for Another Location

Airport or City:

Trip Planner

Search our weather history database for the weather conditions in past years. The results will help you decide how hot, cold, wet, or windy it might be!

Date:

Astronomy

Dec. 31, 1969 Rise Set
Actual Time Sun does not set Sun does not set
Civil Twilight 9:19 AM MST 2:13 PM MST
Nautical Twilight 7:13 AM MST 4:18 PM MST
Astronomical Twilight 5:34 AM MST 5:57 PM MST
Moon 1:54 PM MST (11/12) 1:18 AM MST (11/12)
Length of Visible Light 4h 53m
Length of Day
0h 00m
Waxing Gibbous, 77% of the Moon is Illuminated
Nov 12
Waxing Gibbous
Nov 17
Full
Nov 25
Last Quarter
Dec 2
New
Dec 9
First Quarter

Hourly Weather History & Observations

Time (MST) Temp. Windchill Dew Point Humidity Pressure Visibility Wind Dir Wind Speed Gust Speed Precip Events Conditions
12:00 AM 3.4 °F -5.9 °F 0.9 °F 89% 29.31 in - South 4.6 mph - N/A   Unknown
1:00 AM 4.5 °F -7.6 °F 1.9 °F 89% 29.34 in - South 6.9 mph - N/A   Unknown
2:00 AM 4.6 °F -6.0 °F 2.1 °F 89% 29.35 in - SSE 5.8 mph - N/A   Unknown
3:00 AM 5.2 °F -5.4 °F 2.7 °F 89% 29.36 in - South 5.8 mph - N/A   Unknown
4:00 AM 5.4 °F -1.7 °F 3.0 °F 90% 29.37 in - SE 3.5 mph - N/A   Unknown
5:00 AM 5 °F - 3 °F 87% 29.38 in - South 4.6 mph - -  
5:00 AM 5.4 °F -3.6 °F 3.0 °F 90% 29.38 in - South 4.6 mph - N/A   Unknown
6:00 AM 6.6 °F -0.3 °F 4.3 °F 90% 29.39 in - SSE 3.5 mph - N/A   Unknown
7:00 AM 5.4 °F -5.2 °F 2.8 °F 89% 29.39 in - South 5.8 mph - N/A   Unknown
8:00 AM 8.4 °F 1.8 °F 6.3 °F 91% 29.39 in - West 3.5 mph - N/A   Unknown
9:00 AM 10.0 °F 1.8 °F 7.5 °F 90% 29.40 in - SW 4.6 mph - N/A   Unknown
10:00 AM 11.1 °F - 8.4 °F 89% 29.40 in - SSW 1.2 mph - N/A   Unknown
11:00 AM 11 °F - 8 °F 79% 29.41 in - SE 1.2 mph - -  
11:00 AM 10.6 °F - 7.5 °F 87% 29.41 in - SE 1.2 mph - N/A   Unknown
12:00 PM 8.6 °F - 5.4 °F 87% 29.42 in - SE 2.3 mph - N/A   Unknown
1:00 PM 9.9 °F -6.1 °F 7.0 °F 88% 29.42 in - SW 13.8 mph - N/A   Unknown
2:00 PM 9.7 °F 3.2 °F 7.0 °F 89% 29.44 in - ESE 3.5 mph - N/A   Unknown
3:00 PM 10.8 °F -7.7 °F 7.5 °F 87% 29.45 in - WSW 19.6 mph - N/A   Unknown
4:00 PM 8.8 °F -9.8 °F 5.5 °F 87% 29.45 in - WSW 18.4 mph - N/A   Unknown
5:00 PM 9 °F - 5 °F 77% 29.46 in - West 13.8 mph - -  
5:00 PM 8.6 °F -7.7 °F 5.2 °F 86% 29.46 in - West 13.8 mph - N/A   Unknown
6:00 PM 5.4 °F -12.5 °F 1.8 °F 85% 29.48 in - WNW 15.0 mph - N/A   Unknown
7:00 PM 3.6 °F -16.6 °F -0.4 °F 84% 29.49 in - WNW 18.4 mph - N/A   Unknown
8:00 PM 0.1 °F -19.2 °F -4.0 °F 83% 29.51 in - NW 15.0 mph - N/A   Unknown
9:00 PM -1.3 °F -22.9 °F -5.3 °F 83% 29.51 in - WNW 18.4 mph - N/A   Unknown
10:00 PM -0.4 °F -22.3 °F -4.2 °F 84% 29.52 in - West 19.6 mph - N/A   Unknown
11:00 PM -0 °F - -4 °F 73% 29.53 in - West 19.6 mph - -  
11:00 PM -0.2 °F -22.1 °F -4.4 °F 83% 29.53 in - West 19.6 mph - N/A   Unknown